Location: Unspecified
(47.0333°N, 0.0000°E)
Time: 07:30:25
(UTC+00:00)

OTV 5 (USA 277) - Pass Details

Date: 18 June 2019
Orbit: 299 x 335 km, 54.5° (Epoch: 13 July)

Event Time Altitude Azimuth Distance (km) Brightness Sun altitude
Exits shadow 22:47:57 14° 75° (ENE) 1,069 ? -17.7°
Drops below altitude 10° 22:48:28 10° 70° (ENE) 1,268 ? -17.7°
Enters shadow 23:53:02 -50° 244° (WSW) 10,230 ? -19.6°
